Zurück zum Katalog

STARLINK-37401

AktivKommunikationSSO
NORAD 68784·PAYLOAD·🇺🇸 United States

Gestartet Apr 19, 2026 von Vandenberg Space Force Base

Loading…

Nächste Überflüge (nächste 24 Stunden)

TLE

AktuellSource: CelesTrak SupGP

Epoche: Sep 15, 2026, 03:53 UTC

1 68784C 26086U   26258.16229167 -.00050715  00000+0 -15744-2 0  2582
2 68784  97.2842 293.7047 0001244  88.2134 122.0893 15.33464178    14

Verfolge STARLINK-37401 in Echtzeit mit AllMySat

Download on the App Store